GFSFLT2_500_rhum_195.txt.gz
RH
24 26 28 43 57 56 60 65 72 75 66 56 55 64 74 66 78 86 92 85 88 81 65 73 90 95 97 76 44 42 33 30
32 34 41 35 38 56 64 73 75 59 63 70 72 76 71 83 97 92 90 88 82 81 64 84 96 97 89 67 52 40 35 32
33 36 39 50 38 44 64 66 69 62 93 77 93 97 96 93 76 78 84 80 79 80 90 96 97 98 95 66 59 48 34 31
42 37 36 39 37 50 55 65 59 64 64 59 58 72 76 84 84 82 81 80 83 96 97 94 92 90 79 65 66 39 32 27
46 46 43 42 43 41 44 74 90 92 89 88 86 80 79 80 78 79 84 85 93 98 95 81 76 78 55 44 40 36 31 24
54 58 50 50 48 46 43 45 86 100 90 83 90 91 85 80 81 89 93 94 95 87 80 76 68 62 58 49 37 30 23 25
42 55 64 62 60 57 52 44 43 53 76 78 80 89 88 86 81 93 96 94 87 82 71 65 64 52 47 38 30 24 26 31
46 48 55 59 66 77 76 70 61 50 57 74 93 77 77 87 91 87 84 80 69 62 60 55 48 43 33 24 23 28 32 35
52 61 64 64 65 71 84 87 96 82 70 67 67 77 87 84 72 68 72 68 60 55 50 40 28 24 22 25 30 34 36 39
50 60 62 67 67 69 77 83 90 94 100 100 99 98 90 86 98 94 70 47 44 45 38 35 29 24 26 33 38 41 43 48
59 64 62 58 56 56 60 72 76 77 81 95 98 96 99 80 76 72 80 90 72 65 54 36 34 35 41 46 52 55 56 57
52 54 61 54 46 43 42 50 51 52 65 86 97 98 99 98 88 74 53 70 81 98 90 85 84 64 76 85 78 73 74 72
21 28 30 32 34 33 29 19 29 42 44 64 96 93 89 98 99 98 97 69 56 59 56 67 74 88 96 96 95 92 87 80
28 21 25 32 39 47 30 52 67 70 70 66 88 98 98 97 98 100 97 97 97 96 74 80 86 95 96 95 92 84 79 72
20 20 22 24 40 57 59 58 73 86 86 78 74 89 97 97 100 92 99 99 98 99 99 98 100 100 100 95 87 77 66 56
25 21 27 33 30 48 53 62 69 75 96 96 92 91 92 86 100 100 100 100 98 99 100 98 96 97 95 82 68 54 42 35
31 34 33 32 34 48 51 67 70 86 86 99 99 99 66 60 70 77 77 85 88 91 84 82 81 73 60 55 48 38 31 23
32 28 25 29 29 53 68 76 78 85 91 98 96 97 54 50 50 70 69 77 85 75 65 53 47 43 40 35 30 27 24 23
55 58 47 44 44 53 58 78 95 87 97 99 99 98 86 50 51 62 69 70 60 46 37 33 30 27 27 26 24 25 25 27
72 73 63 65 54 51 52 54 58 75 96 93 93 100 99 42 48 48 48 46 43 38 35 33 33 34 31 30 28 30 29 28

GFSFLT2_500_rhum_201.txt.gz
RH
25 28 28 29 34 27 27 28 32 40 33 98 43 74 76 73 72 70 76 73 84 94 86 85 81 70 72 64 73 81 82 90
12 12 13 23 26 28 45 45 33 39 95 41 47 60 91 96 75 86 99 100 95 93 95 97 92 78 72 68 79 87 87 98
9 11 13 17 26 42 31 35 52 45 36 44 55 52 47 81 80 89 89 92 89 82 91 98 86 79 80 82 97 89 92 99
12 13 14 13 15 25 32 35 35 48 43 56 53 58 45 35 94 72 76 80 86 94 100 89 79 80 100 86 97 82 95 98
17 17 16 15 14 14 24 37 39 44 44 50 53 47 38 38 49 69 80 88 84 91 99 90 80 80 83 92 84 99 73 92
20 20 18 18 19 19 18 23 37 48 61 63 48 52 52 47 61 74 93 92 97 94 96 95 91 88 97 98 89 96 75 68
24 23 22 21 21 22 22 25 30 42 62 75 64 57 57 64 69 67 84 85 95 97 96 98 97 97 93 79 98 70 78 60
27 26 26 25 27 27 26 25 31 36 55 67 72 62 54 57 60 74 78 85 96 97 97 96 97 94 76 64 70 59 60 64
30 30 29 28 30 32 30 28 27 31 47 68 74 64 61 58 62 67 73 81 82 86 88 82 89 86 86 91 98 73 100 62
30 29 29 29 32 34 29 27 31 37 46 54 76 79 82 81 80 81 80 80 81 77 80 82 89 94 90 93 87 84 84 68
27 28 30 32 34 35 34 32 32 42 50 58 63 64 69 74 70 80 87 93 92 89 99 97 98 96 91 99 95 86 80 74
26 29 28 29 28 35 46 44 55 60 66 69 65 59 57 58 63 70 78 76 68 75 82 83 86 77 75 94 94 95 90 97
25 30 30 28 29 31 52 67 82 83 76 69 62 57 52 50 46 48 40 31 41 55 76 86 79 96 99 94 94 78 99 98
23 23 34 34 32 30 50 65 63 62 63 68 69 54 43 32 25 20 20 24 34 60 81 76 80 82 77 94 93 95 98 98
26 23 22 22 22 29 37 50 70 63 65 64 65 51 44 47 34 45 48 55 55 59 71 74 93 88 99 93 100 80 98 94
43 41 34 31 27 23 24 40 45 60 74 75 61 41 32 37 42 45 58 65 69 74 87 82 86 95 89 81 91 99 89 84
49 49 48 46 41 36 32 28 28 38 51 53 54 51 38 37 45 49 61 64 72 83 80 76 100 81 69 85 93 89 83 86
56 49 45 46 46 45 42 42 35 31 38 47 45 58 55 65 63 57 64 70 70 89 86 91 98 71 62 83 86 87 84 73
73 66 52 46 42 44 45 45 48 42 37 50 52 51 53 68 76 78 75 74 73 80 92 91 84 54 64 82 74 74 63 36
59 55 49 55 66 66 41 34 36 45 47 41 63 70 65 68 77 85 87 82 80 84 94 99 100 83 85 89 70 82 37 34

GFSFLT2_500_rhum_204.txt.gz
RH
6 6 7 6 8 11 24 30 29 28 32 31 35 50 67 48 67 62 70 77 78 81 76 72 77 87 79 89 67 56 57 80
13 10 8 9 10 9 7 18 25 34 38 31 33 65 41 43 48 81 62 64 68 96 86 72 77 74 84 73 64 69 79 82
16 15 13 12 12 12 15 10 12 23 32 45 38 39 38 45 47 53 93 96 86 92 82 78 95 79 87 64 68 78 87 94
16 16 15 14 13 15 22 25 18 12 22 33 36 38 38 48 50 57 84 96 64 91 76 69 88 94 76 56 74 75 93 87
21 19 17 15 15 19 19 17 19 25 27 26 37 42 44 53 52 49 94 76 76 80 81 80 78 88 72 63 78 78 98 98
23 24 21 18 17 23 18 18 19 21 24 21 37 35 52 57 46 48 49 87 84 84 85 89 94 95 81 68 85 92 98 95
28 25 24 21 20 20 20 21 21 21 24 33 27 38 56 64 54 50 52 57 73 78 81 90 95 98 95 91 100 96 90 94
33 30 27 24 23 24 25 24 22 24 27 28 32 37 51 65 59 61 59 59 76 84 84 84 94 85 90 89 88 98 94 96
38 34 31 28 28 32 28 28 27 26 30 31 38 39 48 70 71 66 58 59 67 82 84 75 83 82 72 68 69 77 89 93
43 41 37 35 35 34 34 35 30 31 32 34 38 35 45 63 76 72 72 74 82 78 80 84 84 84 83 81 73 75 99 96
43 50 46 41 40 40 41 44 39 40 37 39 43 47 48 58 69 68 72 77 75 72 68 84 82 76 74 77 76 70 88 100
45 47 52 44 57 63 40 42 41 45 46 50 48 56 59 60 62 62 60 59 58 62 60 77 65 48 67 70 75 90 95 97
66 67 59 49 77 41 44 48 53 44 56 57 59 56 47 44 47 62 51 50 50 44 39 39 37 30 36 71 74 81 94 84
85 50 46 67 54 45 43 52 47 54 64 46 54 47 52 41 43 55 52 45 39 27 19 22 31 48 60 74 76 71 82 96
80 67 39 33 38 38 35 46 50 51 56 57 58 62 60 53 50 62 54 42 35 26 39 47 60 67 66 55 66 75 88 88
65 64 66 34 37 40 40 42 43 46 54 61 70 70 79 69 67 68 54 46 45 47 48 59 66 65 85 77 80 91 85 78
91 93 90 94 79 50 42 42 44 41 46 43 47 62 63 65 84 92 77 42 45 45 46 48 64 56 81 74 82 86 78 65
89 95 90 95 89 66 50 47 47 43 36 37 39 42 53 74 76 83 87 60 55 59 56 50 66 59 67 86 85 96 78 63
89 87 79 77 99 96 95 95 74 60 52 48 43 48 47 56 60 71 67 70 63 70 69 69 61 69 73 80 91 87 79 55
87 96 97 87 72 75 99 98 98 98 91 68 56 66 58 64 68 81 92 86 67 75 75 75 76 76 73 84 96 98 97 69

GFSFLT2_500_rhum_207.txt.gz
RH
11 11 11 10 9 8 8 8 7 16 27 29 28 37 33 35 47 66 64 60 61 71 72 77 68 48 41 44 51 79 79 60
12 13 14 14 12 11 11 11 9 10 21 25 33 35 32 33 48 46 45 60 84 83 64 62 87 66 69 54 61 90 70 65
14 15 16 16 16 14 13 13 13 15 22 44 33 39 48 47 62 44 55 46 78 99 93 65 74 71 46 46 68 80 67 76
15 18 19 19 20 18 16 15 16 18 21 17 25 25 27 34 46 47 62 67 54 80 87 56 57 55 47 44 52 64 70 80
21 19 22 22 22 22 20 18 17 23 17 17 15 25 31 32 36 44 50 75 87 86 76 52 58 59 69 73 70 73 89 97
31 28 27 27 26 26 23 24 22 29 21 25 19 23 31 40 47 49 57 57 80 80 78 63 61 61 79 77 90 90 82 87
39 36 35 34 32 30 28 29 29 31 25 24 24 22 28 41 51 53 66 66 71 72 86 82 58 65 76 87 94 77 90 96
32 44 39 38 38 35 33 39 35 35 29 29 27 26 28 34 48 53 69 79 65 71 80 94 61 64 78 82 86 81 75 76
50 47 49 45 42 46 48 56 48 50 42 39 36 34 38 31 59 61 60 72 70 66 71 74 73 78 75 86 86 76 71 82
63 58 61 58 85 93 96 65 59 70 82 96 47 37 45 55 59 65 63 68 71 74 75 87 98 85 75 80 80 56 53 76
67 68 66 76 82 92 95 83 75 61 85 90 53 50 44 59 57 60 58 72 68 75 80 90 89 75 61 62 63 38 40 65
46 60 84 87 86 92 91 74 81 96 98 96 89 54 56 68 67 65 62 61 66 70 70 80 83 68 56 50 44 31 41 49
49 74 81 86 80 79 93 93 84 93 93 95 84 74 72 77 70 69 65 63 55 55 57 54 53 49 40 30 18 31 43 57
58 83 88 87 91 83 80 94 94 94 98 100 95 99 80 70 71 70 76 74 59 47 41 48 47 34 23 26 36 53 56 65
66 83 92 89 97 96 71 63 81 96 98 99 97 95 83 70 72 79 84 79 58 53 53 59 44 31 33 37 48 56 65 67
57 83 94 99 96 93 92 69 67 60 91 97 94 96 97 91 94 88 89 81 71 62 60 67 49 52 50 42 52 56 64 66
67 79 80 93 98 97 94 85 49 59 52 48 73 96 99 100 91 94 93 78 70 69 63 71 62 54 50 43 48 54 55 67
82 75 68 71 91 98 98 93 79 64 61 48 48 61 65 93 98 97 100 94 82 84 78 71 78 50 53 50 50 55 60 61
78 83 85 70 75 86 97 98 95 98 92 81 69 46 48 51 84 98 100 98 78 88 99 86 90 75 66 56 62 60 63 60
100 100 100 94 85 98 98 97 99 96 96 89 75 56 58 57 53 51 72 98 91 97 97 96 90 93 77 71 69 70 63 68

GFSFLT2_500_rhum_210.txt.gz
RH
11 11 12 12 13 14 14 11 9 10 9 10 19 25 28 28 36 41 50 64 84 90 73 66 50 58 75 70 82 67 69 69
12 13 14 15 16 17 17 16 14 12 13 10 14 22 23 28 35 33 41 61 68 57 58 69 71 80 79 88 74 73 70 75
17 17 17 17 17 18 20 20 19 16 13 13 27 25 40 32 35 44 44 49 62 50 50 58 80 76 81 90 51 49 64 78
22 26 26 24 21 21 22 22 22 20 18 15 19 37 38 31 29 39 42 37 42 47 53 48 62 74 52 68 63 68 69 83
29 32 35 34 31 28 25 26 26 25 23 20 21 25 32 31 36 38 39 46 44 42 50 43 38 72 47 67 82 95 91 88
26 33 42 43 42 37 32 30 30 29 32 29 22 26 25 28 36 42 36 41 53 58 44 43 49 52 47 56 88 82 82 84
12 13 26 51 50 48 42 38 36 42 40 37 32 31 28 38 48 48 44 45 53 63 51 52 49 50 52 67 83 84 83 75
12 11 17 27 53 52 50 47 45 43 47 45 41 39 41 61 61 39 44 54 63 77 52 58 64 63 58 67 79 88 86 77
16 17 23 34 43 58 54 56 57 57 58 55 62 61 54 72 67 54 51 61 59 75 69 71 67 77 76 78 80 81 93 71
18 19 24 32 51 54 66 62 89 91 80 76 84 92 87 94 78 63 69 72 76 70 77 71 74 84 90 87 92 83 73 66
18 23 30 44 38 64 56 67 84 83 97 96 94 94 93 96 96 72 73 88 84 77 86 74 76 83 89 92 86 73 64 71
24 31 42 54 53 62 69 60 88 82 97 97 97 97 92 97 97 79 70 94 84 74 80 78 79 80 73 68 70 58 58 46
35 38 47 60 87 82 72 52 69 89 94 97 98 95 96 96 95 90 94 88 69 65 77 77 75 70 64 65 56 46 35 22
39 52 47 63 79 100 77 68 77 93 87 90 98 96 94 95 95 90 86 88 90 70 81 87 79 76 70 48 48 34 28 44
40 51 43 60 70 82 77 70 75 83 90 81 96 95 88 97 99 92 83 69 65 72 78 91 84 79 60 53 40 27 47 52
47 50 53 56 48 74 71 62 55 80 84 97 94 88 96 100 95 98 96 76 69 67 79 96 94 80 78 61 46 39 46 46
71 71 49 71 62 70 66 75 93 81 72 93 71 76 97 77 98 90 99 98 76 62 83 98 96 97 88 65 58 46 45 46
61 59 48 59 70 90 94 91 86 82 81 96 89 78 80 92 99 93 97 96 95 77 85 80 95 96 98 79 76 49 51 55
74 57 57 68 75 71 96 93 100 76 91 79 91 85 71 66 65 81 99 97 95 84 98 86 100 99 100 88 87 65 52 60
96 94 97 91 87 81 63 99 82 98 78 51 58 75 93 62 68 67 64 86 97 98 89 99 100 100 99 94 88 88 68 68